DateTimeUTC,F1_A11,F1_S11,BsB_S11,BsG_S11,BsR_S11,BbsB_S11,BbsG_S11,BbsR_S11,BaB_A11,BaG_A11,BaR_A11,Tu_S11,T_S11,Uu_S11,U_S11,P_S11,T1_A11
2021-04-01T20:00:00Z,00000200,20000000,,,,,,,0000.15,-000.00,0000.09,16.5,23.7,01.6,01.0,0654.5,30.9
2021-04-01T20:01:00Z,00000200,20000000,,,,,,,-000.19,0000.27,0000.19,16.6,23.7,01.6,01.0,0654.5,31.0
2021-04-01T20:02:00Z,00000200,20000000,,,,,,,0000.40,0000.07,-000.08,16.6,23.7,01.6,01.0,0654.5,31.0
2021-04-01T20:03:00Z,00000200,60000000,,,,,,,0000.47,0000.25,0000.64,16.6,23.7,01.6,01.0,0654.5,31.0
2021-04-01T20:04:00Z,00000200,41000000,0002.02,0001.25,0000.72,0000.44,0000.17,0000.35,0000.79,0000.74,0000.13,16.9,23.7,01.7,01.1,0655.3,31.0
2021-04-01T20:05:00Z,00000200,01000000,0001.78,0001.14,0000.72,0000.21,0000.13,0000.17,0000.32,0000.45,0000.54,16.9,23.6,01.7,01.1,0655.3,31.0
2021-04-01T20:06:00Z,00000200,01000000,0001.98,0001.29,0000.88,-000.04,0000.13,0000.23,0000.51,0000.22,0000.48,16.9,23.6,01.7,01.1,0655.4,31.0
2021-04-01T20:07:00Z,00000200,01000000,0001.71,0001.40,0001.15,0000.28,-000.18,0000.17,0000.66,0000.82,0000.26,16.9,23.6,01.7,01.1,0655.3,31.0
2021-04-01T20:08:00Z,00000200,01000000,0002.11,0001.25,0001.08,0000.52,0000.11,0000.28,-002.18,0000.80,0000.31,16.9,23.6,01.7,01.1,0655.3,30.9
2021-04-01T20:09:00Z,00000200,01000000,0002.26,0001.34,0000.79,0000.43,-000.09,0000.01,0003.48,0000.59,0000.72,16.9,23.6,01.8,01.2,0655.3,30.9
2021-04-01T20:10:00Z,00000200,01000000,0001.75,0001.70,0000.89,0000.15,0000.14,0000.16,0000.56,0000.57,0000.69,16.9,23.5,01.8,01.2,0655.3,30.9
2021-04-01T20:11:00Z,00000200,01000000,0002.49,0001.06,0000.91,0000.27,-000.06,0000.16,0001.24,0000.86,0000.25,16.9,23.6,01.8,01.2,0655.2,31.0
2021-04-01T20:12:00Z,00000200,01000000,0002.12,0001.60,0000.88,0000.26,0000.07,0000.23,0000.50,0000.25,0000.68,17.0,23.6,01.9,01.3,0655.2,31.0
2021-04-01T20:13:00Z,00000200,00000000,0002.38,0000.91,0000.75,0000.21,0000.09,0000.13,0000.71,0000.77,0000.42,17.1,23.6,01.8,01.2,0655.2,31.0
2021-04-01T20:14:00Z,00000200,01000000,0001.42,0001.17,0001.06,0000.76,0000.18,0000.22,0000.73,0000.81,0000.85,17.1,23.7,01.8,01.2,0655.2,31.0
2021-04-01T20:15:00Z,00000200,01000000,0002.60,0001.11,0000.76,0000.36,0000.15,0000.09,0000.08,0000.21,-000.14,17.1,23.7,01.8,01.2,0655.1,31.0
2021-04-01T20:16:00Z,00000200,01000000,0002.74,0001.29,0000.73,0000.55,0000.22,0000.24,0000.91,0000.49,0000.02,17.2,23.7,01.8,01.2,0655.1,31.0
2021-04-01T20:17:00Z,00000200,01000000,0002.52,0001.17,0000.92,0000.33,-000.01,0000.41,0000.40,0000.19,0000.79,17.1,23.7,01.8,01.2,0655.1,31.0
2021-04-01T20:18:00Z,00000200,01000000,0002.23,0001.44,0001.25,0000.20,0000.10,0000.40,0000.25,0000.70,0000.18,17.1,23.7,01.8,01.2,0655.2,31.0
2021-04-01T20:19:00Z,00000200,01000000,0001.56,0001.39,0000.69,0000.14,0000.11,0000.36,0000.50,0000.42,0000.49,17.1,23.7,01.8,01.2,0655.2,31.0
2021-04-01T20:20:00Z,00000200,01000000,0002.08,0001.09,0001.00,0000.52,0000.03,0000.34,0000.56,0000.50,0000.14,17.1,23.7,01.8,01.2,0655.3,31.0
2021-04-01T20:21:00Z,00000200,01000000,0002.28,0001.30,0000.80,0000.97,-000.01,0000.13,0000.70,0000.52,0000.29,17.1,23.6,01.8,01.2,0655.3,31.0
2021-04-01T20:22:00Z,00000200,01000000,0001.84,0001.24,0000.68,0000.20,0000.25,-000.20,0000.35,0000.36,0000.19,17.0,23.6,01.8,01.2,0655.3,31.0
2021-04-01T20:23:00Z,00000200,01000000,0001.95,0001.22,0000.87,0000.06,0000.31,0000.14,0000.37,0000.47,0000.64,17.0,23.6,01.8,01.2,0655.4,31.0
2021-04-01T20:24:00Z,00000200,01000000,0001.95,0001.29,0000.77,0000.79,0000.13,0000.08,0000.78,0000.21,0000.56,17.0,23.6,01.8,01.2,0655.3,30.9
2021-04-01T20:25:00Z,00000200,01000000,0001.18,0001.21,0000.90,0000.16,0000.26,0000.23,0000.44,0001.21,0000.38,17.0,23.6,01.8,01.2,0655.3,31.0
2021-04-01T20:26:00Z,00000200,01000000,0001.96,0001.06,0000.86,0000.34,0000.05,0000.33,0001.04,0000.22,0000.43,17.1,23.6,01.8,01.2,0655.3,31.0
2021-04-01T20:27:00Z,00000200,01000000,0002.38,0001.15,0000.75,0000.24,0000.24,0000.49,0000.33,0000.60,0000.39,17.1,23.6,01.8,01.2,0655.2,30.9
2021-04-01T20:28:00Z,00000200,01000000,0002.37,0001.25,0000.64,0000.27,0000.05,0000.33,0000.84,0000.72,0000.62,17.1,23.6,01.8,01.2,0655.2,30.9
2021-04-01T20:29:00Z,00000200,01000000,0002.12,0001.29,0000.78,0000.53,0000.27,-000.11,0000.38,0000.30,0000.39,17.1,23.6,01.8,01.2,0655.2,30.9
2021-04-01T20:30:00Z,00000200,01000000,0001.88,0001.18,0000.65,0000.48,0000.20,0000.21,0000.77,0000.50,0000.19,17.0,23.6,01.9,01.3,0655.2,30.9
2021-04-01T20:31:00Z,00000200,01000000,0002.05,0001.22,0000.76,0000.57,0000.17,-000.09,0000.08,0000.25,0000.12,17.1,23.6,01.9,01.2,0655.2,30.9
2021-04-01T20:32:00Z,00000200,01000000,0002.47,0001.35,0000.65,0000.46,0000.08,0000.04,0000.63,0000.63,0000.45,17.0,23.6,01.8,01.2,0655.3,30.9
2021-04-01T20:33:00Z,00000200,01000000,0002.03,0001.14,0000.83,0000.25,-000.03,0000.09,0000.78,0000.56,0000.15,17.0,23.6,01.9,01.3,0655.2,30.9
2021-04-01T20:34:00Z,00000200,01000000,0001.98,0001.18,0000.70,0000.47,0000.37,0000.18,0000.63,0000.60,0000.74,17.0,23.6,01.9,01.2,0655.1,30.9
2021-04-01T20:35:00Z,00000200,00000000,0002.14,0001.09,0000.70,0000.47,0000.40,0000.18,0000.74,0000.47,0000.63,17.0,23.6,01.9,01.3,0655.1,30.9
2021-04-01T20:36:00Z,00000200,01000000,0001.75,0001.08,0000.57,-000.03,0000.31,0000.10,0000.45,0000.30,0000.26,16.9,23.6,01.9,01.3,0655.2,30.9
2021-04-01T20:37:00Z,00000200,00080000,0004.73,0002.49,0001.71,0000.71,-000.02,-000.11,0000.86,0000.93,0000.43,16.9,23.5,02.0,01.3,0655.1,30.9
2021-04-01T20:38:00Z,00000200,00000000,0002.19,0001.21,0000.98,0000.29,-000.02,0000.25,0000.38,0000.50,0000.79,16.9,23.5,01.9,01.3,0655.1,30.9
2021-04-01T20:39:00Z,00000200,01000000,0002.13,0001.53,0001.14,0000.43,0000.19,0000.20,0000.59,0000.66,0000.04,16.9,23.5,02.0,01.3,0655.1,30.9
2021-04-01T20:40:00Z,00000200,01000000,0001.62,0001.08,0000.61,-000.10,-000.12,0000.16,0001.20,0000.80,0000.68,16.9,23.5,02.0,01.3,0655.1,30.9
2021-04-01T20:41:00Z,00000200,00000000,0002.77,0001.07,0000.64,0000.67,0000.17,0000.03,0000.79,0000.60,0001.00,17.0,23.5,02.0,01.4,0654.9,30.9
2021-04-01T20:42:00Z,00000200,00000000,0002.24,0001.35,0000.87,-000.05,0000.13,0000.05,0000.30,0000.57,0000.34,17.0,23.5,02.1,01.4,0655.0,30.9
2021-04-01T20:43:00Z,00000200,01000000,0001.49,0001.04,0000.78,0000.16,0000.02,0000.21,0000.88,0000.73,0000.24,17.0,23.6,02.0,01.3,0655.0,30.9
2021-04-01T20:44:00Z,00000200,01000000,0002.44,0001.24,0000.91,0000.60,0000.26,0000.31,0000.49,0000.70,0000.51,17.1,23.6,02.1,01.4,0655.0,30.9
2021-04-01T20:45:00Z,00000200,00000000,0001.43,0001.36,0000.69,0000.06,0000.07,0000.16,0000.98,0000.47,0000.64,17.0,23.6,02.2,01.5,0655.1,30.9
2021-04-01T20:46:00Z,00000200,00000000,0002.15,0001.37,0000.69,0000.10,0000.30,0000.23,0000.32,0000.96,0000.15,17.0,23.5,02.2,01.5,0654.9,30.9
2021-04-01T20:47:00Z,00000200,00000000,0002.21,0001.04,0000.75,0000.45,0000.19,0000.28,0000.60,0000.11,0000.51,17.0,23.5,02.3,01.5,0655.0,30.9
2021-04-01T20:48:00Z,00000200,00000000,0001.51,0001.12,0000.85,0000.31,0000.03,0000.11,0001.07,0001.05,0000.66,17.0,23.5,02.4,01.6,0654.9,30.9
2021-04-01T20:49:00Z,00000200,00000000,0002.09,0001.23,0000.68,0000.02,-000.04,0000.20,0000.47,0000.23,0000.28,17.0,23.5,02.4,01.6,0654.9,30.9
2021-04-01T20:50:00Z,00000200,00000000,0002.44,0001.25,0000.61,0000.81,0000.09,0000.05,0000.49,0000.45,0000.38,16.9,23.5,02.4,01.6,0654.9,30.9
2021-04-01T20:51:00Z,00000200,00080000,0002.34,0001.36,0000.60,0000.48,-000.01,-000.16,0000.58,0000.68,0000.81,16.9,23.5,02.4,01.6,0654.9,30.9
2021-04-01T20:52:00Z,00000200,00000000,0001.76,0001.35,0000.79,0000.46,0000.08,0000.39,0000.74,0000.75,0000.19,16.9,23.5,02.4,01.6,0654.8,30.9
2021-04-01T20:53:00Z,00000200,00000000,0002.55,0001.07,0000.61,0000.78,0000.44,0000.31,0000.77,0000.75,0000.77,16.9,23.4,02.5,01.7,0654.9,30.9
2021-04-01T20:54:00Z,00000200,00000000,0001.98,0001.15,0000.84,0000.16,0000.42,0000.06,0000.60,0000.41,0000.09,16.9,23.4,02.4,01.6,0654.8,30.9
2021-04-01T20:55:00Z,00000200,00000000,0001.99,0001.43,0000.76,0000.01,0000.26,0000.18,0001.10,0000.91,0001.27,16.9,23.4,02.5,01.7,0654.9,30.9
2021-04-01T20:56:00Z,00000200,00080000,0002.21,0001.32,0000.72,0000.01,0000.12,0000.31,0000.76,0000.51,0000.20,16.9,23.4,02.5,01.7,0654.8,30.9
2021-04-01T20:57:00Z,00000200,40000000,,,,,,,0000.02,0000.22,0000.24,17.0,23.4,02.2,01.5,0655.0,30.9
2021-04-01T20:58:00Z,00000200,60000000,,,,,,,-000.38,0000.22,-000.42,16.8,23.6,02.3,01.5,0654.0,30.9
2021-04-01T20:59:00Z,00000200,20000000,,,,,,,-000.23,-000.31,-000.07,16.8,23.7,02.3,01.5,0654.0,30.9
